Location: Charlottesville
(38.0290°N, 78.4770°W)
Time: 12:52:47
(UTC-04:00)

Tiangong 1 - Pass Details

Date: 15 October 2017
Orbit: 294 x 320 km, 42.8° (Epoch: 18 October)

Event Time Altitude Azimuth Distance (km) Brightness Sun altitude
Rises 20:15:15 0° 286° (WNW) 2,036 6.2 -20.3°
Reaches altitude 10° 20:17:21 10° 276° (W) 1,200 4.8 -20.7°
Enters shadow 20:19:13 28° 238° (WSW) 618 2.6 -21.1°
